Location: Fayetteville
(35.0530°N, 78.8790°W)
Time: 16:48:50
(UTC-05:00)

Hubble Space Telescope - Pass Details

Date: 28 November 2021
Orbit: 534 x 538 km, 28.5° (Epoch: 28 January)

Event Time Altitude Azimuth Distance (km) Brightness Sun altitude
Exits shadow 05:56:31 13° 243° (WSW) 1,610 2.8 -13.5°
Maximum altitude 05:59:44 32° 182° (S) 921 2.1 -12.8°
Drops below altitude 10° 06:03:25 10° 118° (ESE) 1,776 4.9 -12.1°
Sets 06:05:49 0° 109° (ESE) 2,666 6.5 -11.6°
